Location: Newark
(43.4306°N, 0.3089°E)
Time: 09:46:26
(UTC+00:00)

Vanguard 2 - All Passes

Search period start: 22 August 2019 00:00
Search period end: 01 September 2019 00:00
Orbit: 554 x 2938 km, 32.9° (Epoch: 21 August)

Date Brightness Start Highest point End Pass type
(mag) Time Alt. Az. Time Alt. Az. Time Alt. Az.
22 Aug - 11:32:27 10° S 11:36:06 17° SE 11:40:46 10° ESE daylight
22 Aug - 13:37:08 10° SW 13:43:37 40° SSE 13:53:58 10° ESE daylight
22 Aug - 15:44:13 10° WSW 15:52:47 46° S 16:06:18 10° ESE daylight
22 Aug - 17:52:54 10° W 18:02:58 33° SSW 18:16:43 10° SSE daylight
22 Aug - 20:06:03 10° WSW 20:13:13 15° SW 20:21:11 10° S visible
23 Aug - 11:49:11 10° SSW 11:53:31 22° SSE 11:59:29 10° ESE daylight
23 Aug - 13:54:46 10° WSW 14:01:22 42° S 14:12:02 10° ESE daylight
23 Aug - 16:02:08 10° WSW 16:10:41 42° S 16:23:57 10° SE daylight
23 Aug - 18:11:21 10° WSW 18:20:50 27° SSW 18:33:18 10° SSE daylight
24 Aug - 12:06:20 10° SSW 12:11:02 26° SSE 12:17:51 10° ESE daylight
24 Aug - 14:12:29 10° WSW 14:19:11 43° S 14:30:00 10° ESE daylight
24 Aug - 16:20:08 10° WSW 16:28:36 37° SSW 16:41:22 10° SE daylight
24 Aug - 18:30:12 10° WSW 18:38:40 21° SSW 18:49:19 10° S daylight
25 Aug - 12:23:42 10° SW 12:28:40 31° SSE 12:36:02 10° ESE daylight
25 Aug - 14:30:16 10° WSW 14:37:02 41° S 14:47:51 10° ESE daylight
25 Aug - 16:38:16 10° WSW 16:46:31 32° SSW 16:58:31 10° SE daylight
25 Aug - 18:49:51 10° WSW 18:56:30 16° SSW 19:04:20 10° S daylight
26 Aug - 10:36:43 10° S 10:39:04 13° SSE 10:41:47 10° ESE daylight
26 Aug - 12:41:15 10° SW 12:46:22 34° SSE 12:54:07 10° ESE daylight
26 Aug - 14:48:09 10° WSW 14:54:54 38° S 15:05:34 10° SE daylight
26 Aug - 16:56:37 10° WSW 17:04:25 26° SSW 17:15:16 10° SSE daylight
26 Aug - 19:13:08 10° SW 19:14:20 10° SW 19:15:34 10° SSW visible
27 Aug - 10:53:23 10° SSW 10:56:34 18° SSE 11:00:34 10° ESE daylight
27 Aug - 12:58:54 10° WSW 13:04:06 35° S 13:12:06 10° ESE daylight
27 Aug - 15:06:06 10° WSW 15:12:48 34° S 15:23:05 10° SE daylight
27 Aug - 17:15:20 10° WSW 17:22:19 20° SSW 17:31:29 10° SSE daylight
28 Aug - 11:10:31 10° SSW 11:14:09 22° SSE 11:18:55 10° ESE daylight
28 Aug - 13:16:39 10° WSW 13:21:54 35° S 13:29:59 10° ESE daylight
28 Aug - 15:24:12 10° WSW 15:30:42 29° SSW 15:40:21 10° SE daylight
28 Aug - 17:34:49 10° WSW 17:40:13 15° SSW 17:46:47 10° S daylight
29 Aug - 11:27:55 10° SW 11:31:48 25° SSE 11:37:03 10° ESE daylight
29 Aug - 13:34:30 10° WSW 13:39:45 33° S 13:47:44 10° ESE daylight
29 Aug - 15:42:30 10° WSW 15:48:36 24° SSW 15:57:14 10° SSE daylight
30 Aug - 09:40:56 10° S 09:42:15 11° SSE 09:43:39 10° SE daylight
30 Aug - 11:45:31 10° SW 11:49:31 28° S 11:55:03 10° ESE daylight
30 Aug - 13:52:26 10° WSW 13:57:36 29° S 14:05:19 10° SE daylight
30 Aug - 16:01:10 10° WSW 16:06:32 18° SSW 16:13:36 10° SSE daylight
31 Aug - 09:57:25 10° SSW 09:59:51 15° SSE 10:02:35 10° ESE daylight
31 Aug - 12:03:13 10° SW 12:07:17 28° S 12:12:57 10° ESE daylight
31 Aug - 14:10:30 10° WSW 14:15:29 25° S 14:22:38 10° SE daylight
31 Aug - 16:20:42 10° SW 16:24:28 13° SSW 16:28:56 10° S daylight
